#timestamp,LO_Frequency,Hit,StdDev 
1643940015.7,286047000.0,N
1643940035.5,286047000.2,N
1643940055.3,286047001.1,N
1643940075.2,286046998.1,N
1643940095.0,286046998.2,N
1643940095.9,286046998.2,N
1643940115.8,286047001.1,N
1643940135.6,286047001.0,N
1643940155.4,286046999.9,N
1643940175.3,286047002.5,N
1643940195.1,286047002.0,N
1643940215.8,286047002.3,N
1643940235.7,286047001.9,N
1643940255.5,286047000.3,N
1643940275.4,286046999.9,N
1643940295.2,286047002.4,N
1643940315.0,286047001.6,N
1643940315.9,286047001.6,N
1643940335.8,286046999.7,N
1643940355.6,286046999.8,N
1643940375.4,286047001.6,N
1643940395.3,286047001.9,N
1643940415.1,286047002.7,N
1643940435.9,286047000.9,N
1643940455.7,286047000.4,N
1643940475.5,286047000.7,N
1643940495.4,286046998.4,N
1643940515.2,286047000.8,N
1643940535.0,286047000.4,N
1643940536.0,286047000.4,N
1643940555.8,286047000.6,N
1643940575.6,286047001.2,N
1643940595.5,286046998.9,N
1643940615.3,286046999.1,N
1643940635.1,286046996.7,N
1643940655.9,286046996.9,N
1643940675.7,286046999.1,N
1643940695.8,286046999.4,N
1643940715.7,286047000.8,N
1643940735.5,286046996.6,N
1643940755.4,286046996.6,N
1643940775.2,286046999.5,N
1643940795.0,286046999.1,N
1643940795.9,286046999.1,N
1643940815.8,286046998.7,N
1643940835.6,286047000.9,N
1643940855.5,286047000.3,N
1643940875.3,286047000.7,N
1643940895.1,286046999.8,N
1643940945.9,286047000.3,E
1643940955.8,286047000.5,N
1643940975.6,286047000.5,P
1643940995.5,286046999.7,P
1643941015.3,286047000.1,N
1643941065.2,286047001.4,E
1643941075.1,286047002.4,N
1643941095.8,286046999.9,P
1643941115.7,286047000.0,N
1643941135.5,286047000.2,N
1643941155.4,286047001.5,N
1643941175.2,286047004.3,Y
1643941195.0,286047000.3,P
1643941195.9,286047000.3,N
1643941215.8,286047002.2,P
1643941235.6,286047002.1,N
1643941255.4,286047002.4,N
1643941275.3,286046999.9,N
1643941295.1,286047002.4,N
1643941315.9,286047002.1,N
1643941335.7,286047001.5,N
1643941355.5,286047002.5,N
1643941375.4,286047000.4,N
1643941395.2,286047000.9,N
1643941415.0,286046999.9,N
1643941415.9,286046999.9,N
1643941435.8,286047002.7,N
1643941455.6,286047002.1,N
1643941475.5,286047002.8,N
1643941495.3,286047002.5,N
1643941515.1,286047002.2,N
1643941535.9,286047000.6,N
1643941555.7,286047000.7,N
1643941575.5,286047000.4,N
1643941595.4,286047000.5,N
1643941615.2,286046998.6,N
1643941635.1,286047001.2,N
1643941636.0,286047001.2,N
1643941655.8,286046998.4,N
1643941675.6,286046998.9,N
1643941695.5,286046997.1,N
1643941715.3,286046995.1,Y
1643941735.2,286046995.9,P
1643941755.9,286046996.4,N
1643941775.7,286046995.0,N
1643941795.6,286046996.7,N
1643941815.4,286046996.8,N
1643941835.2,286046999.5,N
1643941855.1,286046996.7,N
1643941856.0,286046996.7,N
1643941875.8,286046999.6,N
1643941895.7,286046998.2,N
1643941915.5,286046998.7,N
1643941935.4,286046998.7,N
1643941955.2,286046999.5,N
1643941975.0,286046997.6,N
1643941975.9,286046997.6,N
1643941995.8,286046995.3,Y
1643942015.6,286047001.2,P
1643942035.5,286046998.5,N
1643942055.3,286047001.2,N
1643942075.1,286046998.1,N
1643942095.9,286046998.1,N
1643942115.7,286047000.3,N
1643942135.6,286046998.5,N
1643942155.4,286047000.9,N
1643942175.2,286046998.6,N
1643942195.1,286047001.2,N
1643942196.0,286047001.2,N
1643942215.8,286047001.0,N
1643942235.7,286046998.3,N
1643942255.5,286047001.2,N
1643942275.3,286047000.8,N
1643942295.2,286046999.0,N
1643942315.9,286046999.4,N
1643942335.7,286046999.5,N
1643942355.6,286046999.2,N
1643942375.4,286046996.6,N
1643942395.2,286046998.9,N
1643942415.1,286046998.1,N
1643942416.0,286046998.1,N
1643942435.8,286047001.0,N
1643942455.7,286047000.7,N
1643942475.5,286047000.8,N
1643942495.3,286047000.3,N
1643942515.2,286046999.7,N
1643942535.0,286047002.5,N
1643942535.9,286047002.5,N
1643942555.8,286047002.8,N
1643942575.6,286047002.4,N
1643942595.4,286047002.4,N
1643942615.3,286047000.2,N
1643942635.1,286046999.7,N
1643942655.8,286047000.1,N
1643942675.7,286046999.7,N
1643942695.5,286047000.1,N
1643942715.4,286046999.7,N
1643942735.2,286047002.7,N
1643942755.0,286047002.4,N
1643942755.9,286047002.4,N
1643942775.8,286047000.5,N
1643942795.6,286047001.2,N
1643942815.5,286046998.4,N
1643942835.3,286047000.4,N
1643942855.1,286046999.9,N
1643942875.9,286047000.1,N
1643942895.7,286047002.7,N
1643942915.5,286047002.7,N
1643942935.4,286047002.3,N
1643942955.2,286047002.5,N
1643942975.1,286047002.5,N
1643942976.0,286047002.5,N
1643942995.8,286047002.8,N
1643943015.6,286047002.7,N
1643943035.5,286047002.5,N
1643943055.3,286046999.7,N
1643943075.1,286047002.4,N
1643943095.9,286046999.9,N
1643943115.7,286047002.7,N
1643943135.6,286047002.6,N
1643943155.4,286047002.6,N
1643943175.2,286047002.3,N
1643943195.1,286047002.7,N
1643943196.0,286047002.7,N
1643943215.8,286046999.7,N
1643943235.6,286047002.6,N
1643943255.5,286047002.3,N
1643943275.3,286047001.9,N
1643943295.2,286046999.7,N
1643943315.9,286047002.0,N
1643943335.7,286047000.0,N
1643943355.6,286047000.0,N
1643943375.4,286047001.1,N
1643943395.2,286047001.0,N
1643943415.1,286047002.7,N
1643943416.0,286047002.7,N
1643943435.8,286047002.5,N
1643943455.7,286047000.2,N
1643943475.5,286047000.2,N
1643943495.3,286047002.5,N
1643943515.2,286047000.5,N
1643943535.0,286047002.4,N
1643943535.9,286047002.4,N
1643943555.8,286047002.7,N
1643943575.6,286047000.2,N
1643943595.4,286046999.8,N
